Time,TemperatureF,DewpointF,PressureIn,WindDirection,WindDirectionDegrees,WindSpeedMPH,WindSpeedGustMPH,Humidity,HourlyPrecipIn,Conditions,Clouds,dailyrainin,SoftwareType,DateUTC
2013-11-06 00:15:00,50.1,44.8,30.22,SW,226,0.0,0.0,82,0.00,,,0.00,WeatherTracker,2013-11-06 08:15:00,
2013-11-06 00:22:00,50.0,44.7,30.22,SW,227,0.0,0.0,82,0.00,,,0.00,WeatherTracker,2013-11-06 08:22:00,
2013-11-06 01:09:00,49.1,44.8,30.23,SW,226,0.0,0.0,85,0.00,,,0.00,WeatherTracker,2013-11-06 09:09:00,
2013-11-06 02:04:00,48.9,45.2,30.23,SW,226,0.0,0.0,87,0.00,,,0.00,WeatherTracker,2013-11-06 10:04:00,
2013-11-06 02:35:00,48.3,44.6,30.23,SW,227,0.0,0.0,87,0.00,,,0.00,WeatherTracker,2013-11-06 10:35:00,
2013-11-06 02:43:00,48.0,44.3,30.23,SW,227,0.0,0.0,87,0.00,,,0.00,WeatherTracker,2013-11-06 10:43:00,
2013-11-06 03:14:00,47.9,43.6,30.22,SW,226,0.0,0.0,85,0.00,,,0.00,WeatherTracker,2013-11-06 11:14:00,
2013-11-06 03:40:00,48.1,43.8,30.23,SW,227,0.0,0.0,85,0.00,,,0.00,WeatherTracker,2013-11-06 11:40:00,
2013-11-06 04:01:00,48.3,44.0,30.23,SW,227,0.0,0.0,85,0.00,,,0.00,WeatherTracker,2013-11-06 12:01:00,
2013-11-06 04:16:00,48.1,43.8,30.23,SW,226,0.0,0.0,85,0.00,,,0.00,WeatherTracker,2013-11-06 12:16:00,
2013-11-06 04:55:00,47.5,42.9,30.23,SW,226,0.0,0.0,84,0.00,,,0.00,WeatherTracker,2013-11-06 12:55:00,
2013-11-06 05:04:00,47.3,42.7,30.24,SW,227,0.0,0.0,84,0.00,,,0.00,WeatherTracker,2013-11-06 13:04:00,
2013-11-06 05:19:00,47.0,42.7,30.23,SW,227,0.0,0.0,85,0.00,,,0.00,WeatherTracker,2013-11-06 13:19:00,
2013-11-06 05:26:00,46.9,42.6,30.23,SW,227,0.0,0.0,85,0.00,,,0.00,WeatherTracker,2013-11-06 13:26:00,
2013-11-06 05:34:00,46.7,42.4,30.23,SW,227,0.0,0.0,85,0.00,,,0.00,WeatherTracker,2013-11-06 13:34:00,
2013-11-06 05:58:00,46.2,41.9,30.23,SW,227,0.0,0.0,85,0.00,,,0.00,WeatherTracker,2013-11-06 13:58:00,
2013-11-06 07:39:00,49.3,44.7,30.25,SW,226,0.0,0.0,84,0.00,,,0.00,WeatherTracker,2013-11-06 15:39:00,
2013-11-06 08:17:00,55.3,46.1,30.27,SW,226,0.0,0.0,71,0.00,,,0.00,WeatherTracker,2013-11-06 16:17:00,
2013-11-06 08:32:00,56.6,46.5,30.27,SW,227,0.0,0.0,69,0.00,,,0.00,WeatherTracker,2013-11-06 16:32:00,
2013-11-06 08:44:00,57.8,46.1,30.27,SW,226,0.0,0.0,65,0.00,,,0.00,WeatherTracker,2013-11-06 16:44:00,
2013-11-06 09:00:00,59.0,46.4,30.27,SW,227,1.0,0.0,63,0.00,,,0.00,WeatherTracker,2013-11-06 17:00:00,
2013-11-06 09:32:00,59.7,47.1,30.27,SW,226,2.0,0.0,63,0.00,,,0.00,WeatherTracker,2013-11-06 17:32:00,
2013-11-06 09:43:00,60.0,46.9,30.27,SW,226,0.0,0.0,62,0.00,,,0.00,WeatherTracker,2013-11-06 17:43:00,
2013-11-06 09:51:00,61.6,46.2,30.27,SW,226,1.0,0.0,57,0.00,,,0.00,WeatherTracker,2013-11-06 17:51:00,
2013-11-06 09:57:00,62.2,42.8,30.27,SW,227,0.0,0.0,49,0.00,,,0.00,WeatherTracker,2013-11-06 17:57:00,
2013-11-06 10:04:00,62.9,41.2,30.27,SW,226,2.0,0.0,45,0.00,,,0.00,WeatherTracker,2013-11-06 18:04:00,
2013-11-06 11:19:00,66.7,42.9,30.24,SW,227,2.0,0.0,42,0.00,,,0.00,WeatherTracker,2013-11-06 19:19:00,
2013-11-06 11:29:00,66.3,46.0,30.24,SW,228,0.0,0.0,48,0.00,,,0.00,WeatherTracker,2013-11-06 19:29:00,
2013-11-06 12:21:00,68.8,42.1,30.23,WSW,242,0.0,0.0,38,0.00,,,0.00,WeatherTracker,2013-11-06 20:21:00,
2013-11-06 12:27:00,68.8,42.1,30.22,WSW,242,2.0,0.0,38,0.00,,,0.00,WeatherTracker,2013-11-06 20:27:00,
2013-11-06 12:40:00,69.5,42.8,30.21,SW,214,0.0,0.0,38,0.00,,,0.00,WeatherTracker,2013-11-06 20:40:00,
2013-11-06 12:46:00,69.7,42.9,30.21,SW,214,3.0,0.0,38,0.00,,,0.00,WeatherTracker,2013-11-06 20:46:00,
2013-11-06 12:52:00,69.7,42.3,30.20,SW,214,2.0,0.0,37,0.00,,,0.00,WeatherTracker,2013-11-06 20:52:00,
2013-11-06 12:58:00,69.9,42.4,30.20,SW,214,1.0,0.0,37,0.00,,,0.00,WeatherTracker,2013-11-06 20:58:00,
2013-11-06 13:04:00,70.0,41.8,30.20,SW,214,1.0,0.0,36,0.00,,,0.00,WeatherTracker,2013-11-06 21:04:00,
2013-11-06 13:10:00,69.9,41.7,30.20,SW,214,2.0,0.0,36,0.00,,,0.00,WeatherTracker,2013-11-06 21:10:00,
2013-11-06 13:15:00,69.9,41.7,30.20,SW,214,3.0,0.0,36,0.00,,,0.00,WeatherTracker,2013-11-06 21:15:00,
2013-11-06 13:22:00,69.5,41.4,30.20,SW,215,0.0,0.0,36,0.00,,,0.00,WeatherTracker,2013-11-06 21:22:00,
2013-11-06 13:29:00,70.5,43.0,30.19,SW,215,2.0,0.0,37,0.00,,,0.00,WeatherTracker,2013-11-06 21:29:00,
2013-11-06 13:43:00,70.6,43.7,30.19,SW,215,2.0,0.0,38,0.00,,,0.00,WeatherTracker,2013-11-06 21:43:00,
2013-11-06 15:43:00,72.3,42.3,30.18,NE,55,0.0,0.0,34,0.00,,,0.00,WeatherTracker,2013-11-06 23:43:00,
2013-11-06 15:53:00,71.9,41.2,30.18,ENE,74,0.0,0.0,33,0.00,,,0.00,WeatherTracker,2013-11-06 23:53:00,
2013-11-06 16:02:00,71.0,42.7,30.18,ENE,74,1.0,0.0,36,0.00,,,0.00,WeatherTracker,2013-11-07 00:02:00,
2013-11-06 16:16:00,70.0,49.9,30.18,ENE,74,0.0,0.0,49,0.00,,,0.00,WeatherTracker,2013-11-07 00:16:00,
2013-11-06 16:31:00,69.7,51.8,30.17,ENE,74,0.0,0.0,53,0.00,,,0.00,WeatherTracker,2013-11-07 00:31:00,
2013-11-06 16:37:00,69.3,51.4,30.18,ENE,74,0.0,0.0,53,0.00,,,0.00,WeatherTracker,2013-11-07 00:37:00,
2013-11-06 16:46:00,68.7,50.9,30.17,ENE,74,0.0,0.0,53,0.00,,,0.00,WeatherTracker,2013-11-07 00:46:00,
2013-11-06 16:58:00,67.9,47.5,30.17,ENE,74,0.0,0.0,48,0.00,,,0.00,WeatherTracker,2013-11-07 00:58:00,
2013-11-06 17:09:00,67.0,42.5,30.18,ENE,74,0.0,0.0,41,0.00,,,0.00,WeatherTracker,2013-11-07 01:09:00,
2013-11-06 17:14:00,66.8,41.7,30.18,ENE,74,0.0,0.0,40,0.00,,,0.00,WeatherTracker,2013-11-07 01:14:00,
2013-11-06 17:26:00,66.5,43.3,30.17,ENE,74,0.0,0.0,43,0.00,,,0.00,WeatherTracker,2013-11-07 01:26:00,
2013-11-06 17:35:00,66.1,44.1,30.18,ENE,74,0.0,0.0,45,0.00,,,0.00,WeatherTracker,2013-11-07 01:35:00,
2013-11-06 17:40:00,65.8,43.9,30.18,ENE,74,0.0,0.0,45,0.00,,,0.00,WeatherTracker,2013-11-07 01:40:00,
2013-11-06 17:47:00,65.6,43.7,30.18,ENE,74,0.0,0.0,45,0.00,,,0.00,WeatherTracker,2013-11-07 01:47:00,
2013-11-06 17:54:00,65.2,43.3,30.18,ENE,74,0.0,0.0,45,0.00,,,0.00,WeatherTracker,2013-11-07 01:54:00,
2013-11-06 18:00:00,64.9,43.6,30.18,ENE,74,0.0,0.0,46,0.00,,,0.00,WeatherTracker,2013-11-07 02:00:00,
2013-11-06 18:18:00,64.1,46.1,30.18,ENE,74,0.0,0.0,52,0.00,,,0.00,WeatherTracker,2013-11-07 02:18:00,
2013-11-06 18:40:00,63.0,47.1,30.18,ENE,74,0.0,0.0,56,0.00,,,0.00,WeatherTracker,2013-11-07 02:40:00,
2013-11-06 18:45:00,62.8,47.3,30.18,ENE,74,0.0,0.0,57,0.00,,,0.00,WeatherTracker,2013-11-07 02:45:00,
2013-11-06 18:51:00,62.5,47.1,30.18,ENE,74,0.0,0.0,57,0.00,,,0.00,WeatherTracker,2013-11-07 02:51:00,
2013-11-06 19:03:00,62.1,47.1,30.18,ENE,74,0.0,0.0,58,0.00,,,0.00,WeatherTracker,2013-11-07 03:03:00,
2013-11-06 19:18:00,61.7,46.8,30.18,ENE,74,0.0,0.0,58,0.00,,,0.00,WeatherTracker,2013-11-07 03:18:00,
2013-11-06 19:36:00,61.3,46.8,30.18,ENE,74,0.0,0.0,59,0.00,,,0.00,WeatherTracker,2013-11-07 03:36:00,
2013-11-06 19:46:00,61.3,49.8,30.18,ENE,74,0.0,0.0,66,0.00,,,0.00,WeatherTracker,2013-11-07 03:46:00,
2013-11-06 19:51:00,61.3,50.6,30.18,ENE,74,0.0,0.0,68,0.00,,,0.00,WeatherTracker,2013-11-07 03:51:00,
2013-11-06 20:01:00,61.1,51.2,30.18,ENE,74,0.0,0.0,70,0.00,,,0.00,WeatherTracker,2013-11-07 04:01:00,
2013-11-06 20:15:00,60.5,50.7,30.18,ENE,74,0.0,0.0,70,0.00,,,0.00,WeatherTracker,2013-11-07 04:15:00,
2013-11-06 20:32:00,59.9,49.7,30.18,ENE,74,0.0,0.0,69,0.00,,,0.00,WeatherTracker,2013-11-07 04:32:00,
2013-11-06 20:45:00,59.6,49.4,30.18,ENE,74,0.0,0.0,69,0.00,,,0.00,WeatherTracker,2013-11-07 04:45:00,
2013-11-06 21:00:00,59.3,48.7,30.18,ENE,74,0.0,0.0,68,0.00,,,0.00,WeatherTracker,2013-11-07 05:00:00,
2013-11-06 21:03:00,59.1,48.5,30.18,ENE,74,0.0,0.0,68,0.00,,,0.00,WeatherTracker,2013-11-07 05:03:00,
2013-11-06 21:10:00,59.0,48.5,30.19,ENE,74,0.0,0.0,68,0.00,,,0.00,WeatherTracker,2013-11-07 05:10:00,
2013-11-06 21:13:00,59.0,48.5,30.18,ENE,74,0.0,0.0,68,0.00,,,0.00,WeatherTracker,2013-11-07 05:13:00,
2013-11-06 21:15:00,59.0,48.5,30.19,ENE,74,0.0,0.0,68,0.00,,,0.00,WeatherTracker,2013-11-07 05:15:00,
2013-11-06 21:28:00,58.5,48.4,30.19,ENE,74,0.0,0.0,69,0.00,,,0.00,WeatherTracker,2013-11-07 05:28:00,
2013-11-06 21:34:00,58.2,47.7,30.19,ENE,74,0.0,0.0,68,0.00,,,0.00,WeatherTracker,2013-11-07 05:34:00,
2013-11-06 21:48:00,57.8,47.7,30.20,ENE,74,0.0,0.0,69,0.00,,,0.00,WeatherTracker,2013-11-07 05:48:00,
2013-11-06 22:05:00,57.3,47.2,30.20,ENE,74,0.0,0.0,69,0.00,,,0.00,WeatherTracker,2013-11-07 06:05:00,
2013-11-06 22:17:00,57.0,47.3,30.19,ENE,74,0.0,0.0,70,0.00,,,0.00,WeatherTracker,2013-11-07 06:17:00,
2013-11-06 22:46:00,56.9,48.0,30.19,ENE,74,0.0,0.0,72,0.00,,,0.00,WeatherTracker,2013-11-07 06:46:00,
2013-11-06 23:13:00,56.7,47.8,30.19,ENE,74,0.0,0.0,72,0.00,,,0.00,WeatherTracker,2013-11-07 07:13:00,
2013-11-06 23:21:00,56.6,47.7,30.18,ENE,74,0.0,0.0,72,0.00,,,0.00,WeatherTracker,2013-11-07 07:21:00,
2013-11-06 23:31:00,56.3,47.4,30.18,ENE,74,0.0,0.0,72,0.00,,,0.00,WeatherTracker,2013-11-07 07:31:00,
2013-11-06 23:43:00,56.0,47.1,30.18,ENE,74,0.0,0.0,72,0.00,,,0.00,WeatherTracker,2013-11-07 07:43:00,
2013-11-06 23:49:00,55.9,47.0,30.17,ENE,74,0.0,0.0,72,0.00,,,0.00,WeatherTracker,2013-11-07 07:49:00,
2013-11-06 23:59:00,55.6,46.7,30.17,ENE,74,0.0,0.0,72,0.00,,,0.00,WeatherTracker,2013-11-07 07:59:00,